EW1423 Weather Reports


Display with metric or nautical units.
time (UTC)temp
F
wind
direction
speed
MPH
gust
MPH
rain 1hr
in
rain 24hr
in
rain mn
in
humidity
%
barometer
mb
20260510013304 49 254 0.0 1.0 0.00 0.00 0.00 97 1013.4
20260510012804 49 254 0.0 0.0 0.00 0.00 0.00 97 1013.4
20260510012306 49 254 0.0 1.0 0.00 0.00 0.00 97 1013.4
20260510011804 49 254 0.0 0.0 0.00 0.00 0.00 98 1013.4
20260510011304 49 254 0.0 0.0 0.00 0.00 0.00 97 1013.4
20260510010804 49 254 0.0 0.0 0.00 0.00 0.00 98 1013.4
20260510010303 49 254 0.0 0.0 0.00 0.00 0.00 97 1013.4
20260510005804 49 254 0.0 0.0 0.00 0.00 0.00 97 1013.4
20260510005306 49 254 0.0 0.0 0.00 0.00 0.00 97 1013.4
20260510004804 49 254 0.0 0.0 0.00 0.00 0.00 97 1013.4
20260510004304 49 254 0.0 1.0 0.00 0.00 0.00 97 1013.4
20260510003803 49 254 0.0 0.0 0.00 0.00 0.00 96 1013.4
20260510003303 49 254 0.0 0.0 0.00 0.00 0.00 97 1013.4
20260510002803 49 254 0.0 0.0 0.00 0.00 0.00 97 1013.4
20260510002306 49 254 0.0 0.0 0.00 0.00 0.00 96 1013.4
20260510001804 49 254 0.0 0.0 0.00 0.00 0.00 96 1013.4
20260510000803 50 254 0.0 0.0 0.00 0.00 0.00 96 1013.6
20260510000304 50 254 0.0 0.0 0.00 0.00 0.00 96 1013.6
20260509235803 50 254 0.0 0.0 0.00 0.00 0.00 95 1013.6
20260509235306 50 254 0.0 0.0 0.00 0.00 0.00 95 1013.6
20260509234803 50 254 0.0 0.0 0.00 0.00 0.00 94 1013.8
20260509234303 51 254 0.0 0.0 0.00 0.00 0.00 94 1013.8
20260509233803 51 254 0.0 0.0 0.00 0.00 0.00 94 1013.8
20260509233303 51 254 0.0 0.0 0.00 0.00 0.00 94 1013.8
20260509232804 51 254 0.0 0.0 0.00 0.00 0.00 94 1013.9
20260509232306 51 254 0.0 0.0 0.00 0.00 0.00 94 1013.9
20260509231819 51 254 0.0 0.0 0.00 0.00 0.00 93 1013.9
20260509231304 51 254 0.0 0.0 0.00 0.00 0.00 93 1013.9
20260509230803 52 254 0.0 0.0 0.00 0.00 0.00 93 1013.9
20260509230303 52 254 0.0 0.0 0.00 0.00 0.00 93 1013.9
20260509225804 52 254 0.0 0.0 0.00 0.00 0.00 93 1013.9
20260509225306 52 254 0.0 0.0 0.00 0.00 0.00 93 1013.9
20260509224304 52 254 0.0 0.0 0.00 0.00 0.00 92 1013.9
20260509223804 52 254 0.0 0.0 0.00 0.00 0.00 92 1013.9
20260509223303 53 254 0.0 0.0 0.00 0.00 0.00 91 1013.9
20260509222804 53 254 0.0 0.0 0.00 0.00 0.00 91 1013.9
20260509222306 53 254 0.0 0.0 0.00 0.00 0.00 91 1013.9
20260509221803 53 254 0.0 0.0 0.00 0.00 0.00 91 1013.9
20260509221304 53 254 0.0 0.0 0.00 0.00 0.00 91 1013.9
20260509220810 53 254 0.0 0.0 0.00 0.00 0.00 90 1013.9
20260509220304 54 254 0.0 0.0 0.00 0.00 0.00 90 1013.8
20260509215803 54 254 0.0 0.0 0.00 0.00 0.00 90 1013.8
20260509215306 54 254 0.0 0.0 0.00 0.00 0.00 90 1013.8
20260509214804 54 254 0.0 0.0 0.00 0.00 0.00 89 1013.8
20260509214303 54 254 0.0 0.0 0.00 0.00 0.00 89 1013.8
20260509213804 55 254 0.0 0.0 0.00 0.00 0.00 89 1013.8
20260509212803 55 254 0.0 0.0 0.00 0.00 0.00 88 1013.8
20260509212306 55 254 0.0 0.0 0.00 0.00 0.00 86 1013.8
20260509211304 56 254 0.0 0.0 0.00 0.00 0.00 85 1013.8
20260509210804 57 254 0.0 0.0 0.00 0.00 0.00 84 1013.9
20260509210318 57 254 0.0 0.0 0.00 0.00 0.00 83 1013.9
20260509205804 57 254 0.0 0.0 0.00 0.00 0.00 82 1013.9
20260509204804 58 254 0.0 0.0 0.00 0.00 0.00 80 1014.0
20260509204304 59 254 0.0 1.0 0.00 0.00 0.00 79 1014.0
20260509203804 59 254 0.0 0.0 0.00 0.00 0.00 78 1014.0
20260509203319 60 254 0.0 1.0 0.00 0.00 0.00 77 1014.0
20260509202803 60 254 0.0 1.0 0.00 0.00 0.00 75 1013.9
20260509202306 61 254 0.0 1.0 0.00 0.00 0.00 73 1013.9
20260509201804 62 254 0.0 1.0 0.00 0.00 0.00 72 1014.0
20260509201304 62 254 0.0 0.0 0.00 0.00 0.00 71 1014.0
20260509200804 63 254 0.0 1.0 0.00 0.00 0.00 70 1014.0
20260509200304 63 254 0.0 1.0 0.00 0.00 0.00 68 1014.0
20260509195804 63 254 0.0 5.0 0.00 0.00 0.00 69 1013.8
20260509195306 63 4 1.0 2.0 0.00 0.00 0.00 70 1013.8
20260509194303 63 9 1.0 3.0 0.00 0.00 0.00 68 1013.8
20260509193803 63 23 1.0 3.0 0.00 0.00 0.00 69 1013.8
20260509193303 64 15 1.0 2.0 0.00 0.00 0.00 67 1013.6
20260509192804 64 15 0.0 1.0 0.00 0.00 0.00 67 1013.6
20260509192306 64 15 0.0 1.0 0.00 0.00 0.00 66 1013.6
20260509191804 65 15 1.0 5.0 0.00 0.00 0.00 66 1013.6
20260509191304 65 5 1.0 2.0 0.00 0.00 0.00 65 1013.6
20260509190804 65 37 1.0 5.0 0.00 0.00 0.00 65 1013.6
20260509190303 65 355 1.0 3.0 0.00 0.00 0.00 66 1013.6
20260509185803 65 355 0.0 2.0 0.00 0.00 0.00 65 1013.6
20260509185306 66 355 1.0 2.0 0.00 0.00 0.00 64 1013.6
20260509184803 66 344 0.0 2.0 0.00 0.00 0.00 63 1013.6
20260509183804 67 29 0.0 2.0 0.00 0.00 0.00 61 1013.6
20260509183304 68 319 0.0 1.0 0.00 0.00 0.00 59 1013.6
20260509182306 69 338 1.0 2.0 0.00 0.00 0.00 56 1013.6
20260509181804 69 334 0.0 2.0 0.00 0.00 0.00 56 1013.6
20260509181304 69 334 1.0 2.0 0.00 0.00 0.00 56 1013.6
20260509180803 70 50 0.0 3.0 0.00 0.00 0.00 55 1013.6
20260509180303 70 300 1.0 2.0 0.00 0.00 0.00 55 1013.6
20260509175803 70 302 1.0 3.0 0.00 0.00 0.00 54 1013.6
20260509175306 71 0 1.0 3.0 0.00 0.00 0.00 53 1013.4
20260509174804 71 344 1.0 8.0 0.00 0.00 0.00 53 1013.4
20260509174303 72 289 1.0 5.0 0.00 0.00 0.00 52 1013.4
20260509173803 72 321 2.0 5.0 0.00 0.00 0.00 51 1013.4
20260509173303 73 26 1.0 6.0 0.00 0.00 0.00 50 1013.4
20260509172803 73 301 2.0 5.0 0.00 0.00 0.00 50 1013.4
20260509172306 74 318 1.0 3.0 0.00 0.00 0.00 50 1013.3
20260509171804 74 18 1.0 6.0 0.00 0.00 0.00 48 1013.4
20260509171303 75 297 0.0 1.0 0.00 0.00 0.00 45 1013.4
20260509170803 75 297 1.0 3.0 0.00 0.00 0.00 44 1013.4
20260509170304 75 23 1.0 3.0 0.00 0.00 0.00 45 1013.3
20260509165803 75 66 1.0 5.0 0.00 0.00 0.00 46 1013.4
20260509165306 75 21 2.0 5.0 0.00 0.00 0.00 45 1013.4
20260509164804 76 93 2.0 5.0 0.00 0.00 0.00 45 1013.4
20260509164303 76 327 2.0 6.0 0.00 0.00 0.00 46 1013.4
20260509163803 77 296 1.0 3.0 0.00 0.00 0.00 46 1013.6
20260509163304 77 81 1.0 2.0 0.00 0.00 0.00 46 1013.6
20260509162803 77 60 1.0 5.0 0.00 0.00 0.00 44 1013.6
20260509161804 78 303 2.0 5.0 0.00 0.00 0.00 44 1013.6
20260509161303 78 341 2.0 7.0 0.00 0.00 0.00 42 1013.8
20260509160804 78 326 2.0 5.0 0.00 0.00 0.00 42 1013.9
20260509160303 78 5 1.0 5.0 0.00 0.00 0.00 43 1013.9
20260509155804 78 33 2.0 5.0 0.00 0.00 0.00 44 1013.9
20260509155306 78 300 2.0 5.0 0.00 0.00 0.00 43 1013.9
20260509154804 78 50 2.0 6.0 0.00 0.00 0.00 42 1013.9
20260509154303 79 106 1.0 2.0 0.00 0.00 0.00 43 1013.9
20260509153803 79 286 2.0 5.0 0.00 0.00 0.00 41 1013.9
20260509153303 80 65 1.0 5.0 0.00 0.00 0.00 40 1014.0
20260509152803 81 90 1.0 2.0 0.00 0.00 0.00 38 1014.0
20260509151304 79 39 2.0 5.0 0.00 0.00 0.00 41 1014.3
20260509150804 78 313 0.0 5.0 0.00 0.00 0.00 42 1014.3
20260509150303 78 358 1.0 3.0 0.00 0.00 0.00 43 1014.3
20260509145804 77 355 1.0 3.0 0.00 0.00 0.00 44 1014.3
20260509145306 75 355 1.0 2.0 0.00 0.00 0.00 47 1014.4
20260509144803 74 355 1.0 3.0 0.00 0.00 0.00 47 1014.4
20260509144303 75 307 1.0 5.0 0.00 0.00 0.00 47 1014.4
20260509143803 77 300 1.0 3.0 0.00 0.00 0.00 47 1014.4
20260509143303 77 5 0.0 5.0 0.00 0.00 0.00 45 1014.4
20260509142803 79 311 2.0 5.0 0.00 0.00 0.00 48 1014.4
20260509142306 78 28 2.0 5.0 0.00 0.00 0.00 44 1014.6
20260509141803 77 36 1.0 6.0 0.00 0.00 0.00 45 1014.6
20260509140803 79 51 2.0 5.0 0.00 0.00 0.00 43 1014.9
20260509140304 79 56 1.0 3.0 0.00 0.00 0.00 45 1014.9
20260509135804 78 289 2.0 5.0 0.00 0.00 0.00 45 1014.9
20260509134803 79 78 2.0 6.0 0.00 0.00 0.00 44 1014.9
20260509134304 79 122 2.0 5.0 0.00 0.00 0.00 45 1014.9
20260509133804 79 330 2.0 5.0 0.00 0.00 0.00 43 1015.4
20260509133304 78 77 1.0 3.0 0.00 0.00 0.00 43 1015.4
20260509132804 77 167 1.0 5.0 0.00 0.00 0.00 44 1015.4
20260509132306 77 29 1.0 2.0 0.00 0.00 0.00 47 1015.4
20260509131803 76 342 1.0 3.0 0.00 0.00 0.00 49 1015.4
20260509131304 74 34 1.0 5.0 0.00 0.00 0.00 53 1015.4
20260509130803 72 18 1.0 2.0 0.00 0.00 0.00 55 1015.4
20260509130303 72 18 2.0 3.0 0.00 0.00 0.00 53 1015.4
20260509125803 73 22 1.0 3.0 0.00 0.00 0.00 52 1015.5
20260509125307 74 74 1.0 3.0 0.00 0.00 0.00 53 1015.5
20260509124804 76 66 1.0 3.0 0.00 0.00 0.00 53 1015.5
20260509124303 77 90 1.0 3.0 0.00 0.00 0.00 56 1015.8
20260509123804 77 46 2.0 5.0 0.00 0.00 0.00 51 1015.8
20260509123303 77 81 2.0 5.0 0.00 0.00 0.00 52 1015.8
20260509122804 77 35 2.0 5.0 0.00 0.00 0.00 50 1015.8
20260509122306 77 123 1.0 3.0 0.00 0.00 0.00 48 1015.8
20260509121804 77 102 2.0 5.0 0.00 0.00 0.00 51 1015.9
20260509121303 77 290 1.0 5.0 0.00 0.00 0.00 52 1016.2
20260509120804 77 177 2.0 5.0 0.00 0.00 0.00 53 1016.2
20260509115803 75 146 1.0 3.0 0.00 0.00 0.00 49 1016.2
20260509115306 75 94 1.0 3.0 0.00 0.00 0.00 54 1016.2
20260509114804 75 160 2.0 5.0 0.00 0.00 0.00 48 1016.2
20260509114304 75 105 1.0 3.0 0.00 0.00 0.00 49 1016.3
20260509113304 76 281 1.0 2.0 0.00 0.00 0.00 51 1016.9
20260509112803 75 290 1.0 3.0 0.00 0.00 0.00 52 1016.9
20260509111803 75 188 1.0 3.0 0.00 0.00 0.00 50 1016.9
20260509110804 74 165 1.0 3.0 0.00 0.00 0.00 52 1016.9
20260509110304 74 172 2.0 5.0 0.00 0.00 0.00 51 1016.9
20260509105306 74 181 2.0 7.0 0.00 0.00 0.00 54 1016.9
20260509103304 73 87 1.0 3.0 0.00 0.00 0.00 54 1017.2
20260509102804 73 189 2.0 5.0 0.00 0.00 0.00 52 1017.2
20260509102305 72 72 1.0 2.0 0.00 0.00 0.00 54 1017.2
20260509101303 72 34 1.0 5.0 0.00 0.00 0.00 56 1017.3
20260509100303 71 110 2.0 3.0 0.00 0.00 0.00 58 1017.6
20260509095804 72 101 1.0 5.0 0.00 0.00 0.00 53 1017.6
20260509095306 72 180 1.0 3.0 0.00 0.00 0.00 54 1017.6
20260509094803 72 16 1.0 3.0 0.00 0.00 0.00 55 1017.6
20260509094304 71 98 1.0 2.0 0.00 0.00 0.00 54 1017.6
20260509093803 69 100 1.0 3.0 0.00 0.00 0.00 56 1017.6
20260509093303 69 316 0.0 2.0 0.00 0.00 0.00 59 1017.6
20260509092804 69 305 0.0 2.0 0.00 0.00 0.00 56 1017.6
20260509092305 69 298 1.0 5.0 0.00 0.00 0.00 58 1017.6
20260509091803 69 115 2.0 5.0 0.00 0.00 0.00 56 1017.6
20260509091303 69 119 2.0 5.0 0.00 0.00 0.00 53 1017.6
20260509090803 69 259 1.0 5.0 0.00 0.00 0.00 54 1017.6
20260509090304 69 71 1.0 2.0 0.00 0.00 0.00 58 1017.6
20260509085803 68 60 1.0 5.0 0.00 0.00 0.00 54 1017.6
20260509085306 69 136 1.0 2.0 0.00 0.00 0.00 53 1017.6
20260509084804 69 101 0.0 2.0 0.00 0.00 0.00 55 1017.6
20260509084303 68 120 0.0 3.0 0.00 0.00 0.00 56 1017.6
20260509083804 67 119 0.0 3.0 0.00 0.00 0.00 62 1017.7
20260509082306 66 108 1.0 3.0 0.00 0.00 0.00 63 1017.8
20260509081803 65 91 1.0 5.0 0.00 0.00 0.00 67 1017.8
20260509081303 65 100 1.0 2.0 0.00 0.00 0.00 66 1018.0
20260509080804 64 101 0.0 5.0 0.00 0.00 0.00 68 1018.0
20260509080303 64 178 1.0 3.0 0.00 0.00 0.00 67 1018.0
20260509075804 64 179 1.0 3.0 0.00 0.00 0.00 67 1018.0
20260509075306 63 94 1.0 5.0 0.00 0.00 0.00 69 1018.0
20260509074803 63 27 1.0 2.0 0.00 0.00 0.00 68 1018.0
20260509074304 63 10 1.0 3.0 0.00 0.00 0.00 71 1017.9
20260509073804 62 17 1.0 3.0 0.00 0.00 0.00 72 1018.0
20260509073304 61 116 1.0 2.0 0.00 0.00 0.00 71 1018.0
20260509072803 61 116 1.0 2.0 0.00 0.00 0.00 73 1018.0
20260509072306 59 116 1.0 3.0 0.00 0.00 0.00 74 1018.0
20260509071304 59 86 0.0 1.0 0.00 0.00 0.00 77 1018.0
20260509070803 58 86 0.0 1.0 0.00 0.00 0.00 79 1018.0
20260509070303 57 86 1.0 3.0 0.00 0.00 0.00 80 1018.0
20260509065803 56 109 0.0 2.0 0.00 0.00 0.00 84 1018.0
20260509065306 55 109 1.0 2.0 0.00 0.00 0.00 82 1018.0
20260509064804 55 109 1.0 2.0 0.00 0.00 0.00 81 1018.0
20260509064304 54 92 1.0 3.0 0.00 0.00 0.00 86 1018.0
20260509063304 53 66 0.0 1.0 0.00 0.00 0.00 88 1018.0
20260509062804 52 66 0.0 2.0 0.00 0.00 0.00 88 1018.0
20260509062306 52 66 0.0 2.0 0.00 0.00 0.00 89 1018.0
20260509061804 52 66 1.0 2.0 0.00 0.00 0.00 89 1018.0
20260509060803 52 66 0.0 2.0 0.00 0.00 0.00 89 1018.0
20260509060303 51 66 0.0 1.0 0.00 0.00 0.00 90 1018.0
20260509055804 51 66 1.0 2.0 0.00 0.00 0.00 90 1018.0
20260509055306 51 66 0.0 1.0 0.00 0.00 0.00 92 1018.0
20260509054803 51 66 0.0 2.0 0.00 0.00 0.00 92 1018.0
20260509054304 50 66 0.0 1.0 0.00 0.00 0.00 92 1018.0
20260509053303 50 66 0.0 0.0 0.00 0.00 0.00 94 1018.0
20260509052804 49 66 0.0 0.0 0.00 0.00 0.00 95 1018.0
20260509051803 48 66 0.0 0.0 0.00 0.00 0.00 96 1018.0
20260509051304 48 66 0.0 1.0 0.00 0.00 0.00 95 1018.0
20260509050803 48 66 0.0 0.0 0.00 0.00 0.00 96 1017.9
20260509045803 47 66 0.0 0.0 0.00 0.00 0.00 98 1017.9
20260509045306 47 66 0.0 1.0 0.00 0.00 0.00 98 1017.8
20260509044804 46 66 0.0 1.0 0.00 0.00 0.00 100 1017.8
20260509044304 46 66 0.0 0.0 0.00 0.00 0.00 100 1017.8
20260509043804 45 66 0.0 0.0 0.00 0.00 0.00 100 1017.8
20260509043304 45 66 0.0 0.0 0.00 0.00 0.00 100 1017.8
20260509042803 45 66 0.0 0.0 0.00 0.00 0.00 100 1017.8
20260509042306 45 66 0.0 0.0 0.00 0.00 0.00 100 1017.8
20260509041804 45 66 0.0 0.0 0.00 0.00 0.00 100 1017.8
20260509041303 45 66 0.0 0.0 0.00 0.00 0.00 100 1017.8
20260509040804 45 66 0.0 0.0 0.00 0.00 0.00 100 1017.9
20260509035803 45 66 0.0 0.0 0.00 0.00 0.00 100 1017.7
20260509035306 44 66 0.0 0.0 0.00 0.00 0.00 100 1017.7
20260509034804 44 66 0.0 0.0 0.00 0.00 0.00 100 1017.7
20260509034304 44 66 0.0 0.0 0.00 0.00 0.00 100 1017.7
20260509033304 44 66 0.0 0.0 0.00 0.00 0.00 100 1017.7
20260509032804 43 66 0.0 0.0 0.00 0.00 0.00 100 1017.7
20260509032306 43 66 0.0 0.0 0.00 0.00 0.00 100 1017.7
20260509031803 43 66 0.0 0.0 0.00 0.00 0.00 100 1017.7
20260509031303 43 66 0.0 0.0 0.00 0.00 0.00 100 1017.7
20260509025804 43 66 0.0 0.0 0.00 0.00 0.00 99 1017.7
20260509025306 43 66 0.0 0.0 0.00 0.00 0.00 99 1017.7
20260509024804 43 66 0.0 0.0 0.00 0.00 0.00 99 1017.7
20260509024303 43 66 0.0 0.0 0.00 0.00 0.00 99 1017.6
20260509023303 43 66 0.0 0.0 0.00 0.00 0.00 100 1017.7
20260509022804 43 66 0.0 0.0 0.00 0.00 0.00 99 1017.7
20260509022306 44 66 0.0 0.0 0.00 0.00 0.00 99 1017.7
20260509021803 44 66 0.0 0.0 0.00 0.00 0.00 99 1017.7
20260509021303 44 66 0.0 0.0 0.00 0.00 0.00 99 1017.7
20260509020803 44 66 0.0 0.0 0.00 0.00 0.00 99 1017.7
20260509020304 44 66 0.0 0.0 0.00 0.00 0.00 99 1017.7
20260509015803 44 66 0.0 0.0 0.00 0.00 0.00 99 1017.7
20260509015319 44 66 0.0 0.0 0.00 0.00 0.00 98 1017.7
20260509014803 44 66 0.0 0.0 0.00 0.00 0.00 98 1017.7
20260509014304 44 66 0.0 0.0 0.00 0.00 0.00 98 1017.7